Location: Cheyres
(46.8153°N, 6.7877°E)
Time: 20:43:02
(UTC+00:00)

PicSat - Pass Details

Date: 04 July 2022
Orbit: 446 x 455 km, 97.4° (Epoch: 13 August)

Event Time Altitude Azimuth Distance (km) Brightness Sun altitude
Exits shadow 22:37:49 20° 242° (WSW) 1,123 ? -19.1°
Maximum altitude 22:38:44 22° 266° (W) 1,051 ? -19.1°
Drops below altitude 10° 22:41:31 10° 319° (NW) 1,620 ? -19.2°
Sets 22:43:54 0° 335° (NNW) 2,504 ? -19.3°
